Location: Cutler
(25.6150°N, 80.3110°W)
Time: 05:02:44
(UTC-05:00)

Vanguard 1 - Pass Details

Date: 26 January 2018
Orbit: 650 x 3833 km, 34.2° (Epoch: 19 February)

Event Time Altitude Azimuth Distance (km) Brightness Sun altitude
Rises 21:42:13 0° 254° (WSW) 2,952 - -49.8°
Reaches altitude 10° 21:44:18 10° 258° (WSW) 2,092 - -50.2°
Maximum altitude 21:48:50 66° 341° (NNW) 865 - -51.2°
Drops below altitude 10° 21:55:28 10° 63° (ENE) 3,017 - -52.7°
Sets 21:59:04 0° 66° (ENE) 4,415 - -53.6°
